Weather Roundup
Issued by NWS Corpus Christi, TX

Home | Current Version | Previous Version | Text Only | Print | Product List | Glossary On
Versions: 1 2 3 4 5 6 7 8 9 10 11 12 13 14 15 16 17 18 19 20 21 22 23 24 25 26 27 28 29 30 31 32 33 34 35 36 37 38 39 40 41 42 43 44 45 46 47 48 49 50
707
ASUS44 KCRP 280310
HRRCRP

SOUTH TEXAS REGIONAL WEATHER ROUNDUP
NATIONAL WEATHER SERVICE CORPUS CHRISTI TX
1000 PM CDT WED JUL 27 2016


TXZ229>244-280400-
...CORPUS CHRISTI AREA OBSERVATIONS...

CITY           SKY/WX    TMP DP  RH WIND       PRES   REMARKS
CORPUS CHRISTI PTCLDY    84  77  79 SE12      29.91S HX  94
NAS CORPUS CHR PTCLDY    85  78  80 SE14      29.92R HX  96
ROCKPORT       CLEAR     84  78  82 SE13      29.91S HX  95
KINGSVILLE NAS CLOUDY    82  79  90 SE10      29.91R HX  92
ALICE          CLEAR     82  75  79 SE12      29.90S
FALFURRIAS     PTCLDY    84  73  68 SE10      29.91R HX  90
$$

...VICTORIA AREA OBSERVATIONS...

CITY           SKY/WX    TMP DP  RH WIND       PRES   REMARKS
VICTORIA       CLOUDY    82  76  81 SE8       29.93S
BEEVILLE       FAIR      82  76  84 SE8       29.91S
PLEASANTON     CLEAR     75  72  89 CALM      29.93R
SAN ANTONIO    CLOUDY    76  73  91 N3        29.96R
$$

...LAREDO AREA OBSERVATIONS...

CITY           SKY/WX    TMP DP  RH WIND       PRES   REMARKS
LAREDO         CLEAR     87  69  54 SE8       29.89R HX  91
COTULLA        CLEAR     81  73  76 E9        29.90R
DEL RIO        PTCLDY    82  70  66 SE7       29.92R
MCALLEN        MOCLDY    88  73  61 SE15      29.91R HX  95
HEBBRONVILLE   CLEAR     86  71  60 SE15      29.92R HX  91
$$

...OTHER TEXAS OBSERVATIONS...

CITY           SKY/WX    TMP DP  RH WIND       PRES   REMARKS
BROWNSVILLE    PTCLDY    83  76  79 SE8       29.93R HX  91
HOUSTON        MOCLDY    82  75  79 S3        29.95R
COL. STATION   CLOUDY    77  73  87 SE3       29.96R
AUSTIN         CLOUDY    77  73  87 S3        29.95R
WACO           CLOUDY    81  72  74 S7        29.94R
FORT WORTH     CLOUDY    87  70  56 S13       29.93R HX  92
WICHITA FALLS  CLEAR     81  70  69 SE9       29.94R
LUBBOCK        PTCLDY    78  62  57 N8        30.05R
EL PASO        PTCLDY    83  61  47 S6        30.02R
$$

...MARINE OBSERVATIONS...

STATION/POSITION TIME  SKY/WX   TEMP    WIND        PRES    VSBY  WAVE   SWELL
                                AIR SEA DIR/SP/G                  HT/PER HT/PER
                 (UTC)          (F)     (DEG/KT/KT) (MB)    (MI)  (FT/S) (FT/S)
PORT ARANSAS     0300            85 88  130/ 15/ 17 1013.2S
BUOY 90 E PORT A 0250            86 86  140/ 12/ 14 1014.1R         4/ 7   2/ 7
BUOY 45 SE BAFFI 0250            85 85  150/ 14/ 17 1013.0R         3/ 7   2/ 7
BUOY 200 E PT IS 0250            85 86  100/  8/ 10 1015.0R         3/ 6   3/ 6
BUOY 15 E GALVES 0250            85 86  160/ 14/ 16 1014.5R         4/ 6   2/ 6
$$




USA.gov is the U.S. government's official web portal to all federal, state and local government web resources and services.